Regional Weather Roundup
Issued by NWS Kansas City/Pleasant Hill, MO

Home | Current Version | Previous Version | Text Only | Print | Product List | Glossary On
Versions: 1 2 3 4 5 6 7 8 9 10 11 12 13 14 15 16 17 18 19 20 21 22 23 24 25 26 27 28 29 30 31 32 33 34 35 36 37 38 39 40 41 42 43 44 45 46 47 48 49 50
000
ASUS43 KEAX 011111
RWREAX

WEATHER ROUNDUP FOR EASTERN KANSAS AND NORTHWEST MISSOURI
NATIONAL WEATHER SERVICE KANSAS CITY/PLEASANT HILL MO
500 AM CST SUN FEB 01 2015

KSZ040-057-103>105-MOZ028-029-037-043-011200-
...KANSAS CITY METROPOLITAN AREA...

CITY           SKY/WX    TMP DP  RH WIND       PRES   REMARKS
K.C. INTL      LGT SNOW  33  33 100 SE3       29.72F
K.C. DOWNTOWN  LGT RAIN  34  32  92 E3        29.73F
LEES SUMMIT    CLOUDY    34  33  96 CALM      29.72F FOG
OLATHE - IXD   MIX PCPN  36  36 100 S5        29.71F FOG     WCI  32
OLATHE - OJC   LGT RAIN  35  35 100 SE5       29.70F FOG     WCI  31
LAWRENCE       LGT RAIN  33  33 100 NE5       29.72F FOG     WCI  29

$$

MOZ001>008-011>017-020>025-030>033-038>040-044>046-053-054-011200-
...NORTHERN AND CENTRAL MISSOURI...

CITY           SKY/WX    TMP DP  RH WIND       PRES   REMARKS
ST. JOSEPH     LGT SNOW  32  32 100 CALM      29.75F FOG
MOSBY          LGT SNOW  32  32 100 CALM      29.74F
WARRENSBURG    MIX PCPN  32  32 100 CALM      29.75S
WHITEMAN AFB   LGT RAIN  33  33  97 SE2       29.74F
CLINTON        LGT RAIN  37  37 100 SE7       29.76F WCI  32
SEDALIA        MIX PCPN  34  32  92 SE9       29.76F FOG     WCI  27
WARSAW         NOT AVBL
MARSHALL       LGT SNOW  36  36 100 SE8       29.78F WCI  29
CHILLICOTHE      N/A     33  32  96 SE5       29.77F WCI  29
KIRKSVILLE     LGT SNOW  32  32 100 SE10      29.77F VSB 1   WCI  24

$$

MOZ041-047>049-056>058-063>065-088>090-097-011200-
...EASTERN AND SOUTHERN MISSOURI...

CITY           SKY/WX    TMP DP  RH WIND       PRES   REMARKS
ST. LOUIS INTL HVY RAIN  35  31  85 E8        29.86F FOG     WCI  29
SPIRIT OF STL  RAIN      34  33  96 CALM      29.86S FOG
COLUMBIA       LGT RAIN  33  32  96 SE10      29.77F FOG     WCI  25
JEFFERSON CITY LGT RAIN  34  32  92 E7        29.80F FOG     WCI  28
MEXICO         LGT SNOW N/A N/A N/A SE7       29.80F
ROLLA          RAIN      34  33  96 SE7       29.78F FOG     WCI  28
LEBANON        MIX PCPN  37  36  93 CALM      29.76F
OSAGE BEACH    CLOUDY    36  34  93 E3        29.78F
SPRINGFIELD    CLOUDY    37  36  96 SE8       29.74F FOG     WCI  31
BRANSON        LGT RAIN  41  41 100 CALM      29.76F VSB 1/2
NEVADA         LGT RAIN  37  37 100 S5        29.76S WCI  34
JOPLIN         CLOUDY    41  40  96 SW9       29.75F FOG
WEST PLAINS    RAIN      36  33  89 S8        29.78F FOG     WCI  30

$$

IAZ060-094-KSZ022-034>040-054-083-096-NEZ052-066-093-011200-
...KANSAS...SOUTHEAST NEBRASKA AND IOWA...

CITY           SKY/WX    TMP DP  RH WIND       PRES   REMARKS
TOPEKA         LGT RAIN  33  33 100 NE3       29.72S FOG
MANHATTAN      LGT SNOW  34  33  96 VRB3      29.75R FOG
EMPORIA        LGT RAIN  40  40 100 SW8       29.70S WCI  34
CHANUTE        LGT RAIN  41  40  96 S9        29.72F FOG
WICHITA        CLOUDY    36  34  92 NW22G31   29.77R WCI  25
OMAHA          LGT SNOW  33  32  96 N10       29.80F FOG     WCI  25
LINCOLN        LGT SNOW  29  27  92 N26       29.82R VSB 1   WCI  14
FALLS CITY     LGT SNOW  32  31  96 N5        29.74S FOG     WCI  27
LAMONI         LGT SNOW  32  31  96 NE6       29.75F VSB 1   WCI  26
DES MOINES     LGT SNOW  33  31  92 E7        29.80S FOG     WCI  27

$$



USA.gov is the U.S. government's official web portal to all federal, state and local government web resources and services.